Change the Weather History Date:

Tuesday, June 25, 2013

  Actual Average Record
Temperature  
Mean Temperature 62 °F -  
Max Temperature 69 °F 61 °F 78 °F (1953)
Min Temperature 55 °F 45 °F 35 °F (1986)
Degree Days  
Heating Degree Days 3    
Growing Degree Days 12 (Base 50)    
Moisture  
Dew Point 54 °F    
Average Humidity 75    
Maximum Humidity 94    
Minimum Humidity 56    
Precipitation  
Precipitation 0.00 in - - ()
Sea Level Pressure  
Sea Level Pressure 29.57 in    
Wind  
Wind Speed 5 mph (SSW)    
Max Wind Speed 10 mph    
Max Gust Speed 17 mph    
Visibility 10 miles    
Events      
Averages and records for this station are not official NWS values.
T = Trace of Precipitation, MM = Missing Value Source: NWS Daily Summary

Daily Weather History Graph

Daily Weather History Graph

Search for Another Location

Airport or City:

Trip Planner

Search our weather history database for the weather conditions in past years. The results will help you decide how hot, cold, wet, or windy it might be!

Date:

Astronomy

Jun. 25, 2013 Rise Set
Actual Time 3:56 AM AKDT 10:14 PM AKDT
Civil Twilight 2:37 AM AKDT 11:33 PM AKDT
Nautical Twilight Sun does not rise Sun does not rise
Astronomical Twilight Sun does not rise Sun does not rise
Moon 11:06 PM AKDT (6/25) 7:33 AM AKDT (6/25)
Length of Visible Light 20h 55m
Length of Day
18h 17m
Waning Gibbous, 92% of the Moon is Illuminated
Jun 25
Waning Gibbous
Jun 29
Last Quarter
Jul 7
New
Jul 15
First Quarter
Jul 22
Full

Hourly Weather History & Observations

Time (AKDT) Temp. Dew Point Humidity Pressure Visibility Wind Dir Wind Speed Gust Speed Precip Events Conditions
12:16 AM 66.2 °F 51.8 °F 60% 29.48 in 10.0 mi North 5.8 mph - N/A   Clear
12:36 AM 64.4 °F 53.6 °F 68% 29.49 in 10.0 mi NNW 4.6 mph - N/A   Clear
12:56 AM 64.4 °F 53.6 °F 68% 29.49 in 10.0 mi North 5.8 mph - N/A   Clear
1:16 AM 64.4 °F 53.6 °F 68% 29.50 in 10.0 mi NNE 3.5 mph - N/A   Clear
1:36 AM 62.6 °F 53.6 °F 72% 29.50 in 10.0 mi Calm Calm - N/A   Clear
1:56 AM 60.8 °F 53.6 °F 77% 29.50 in 10.0 mi East 3.5 mph - N/A   Clear
2:16 AM 60.8 °F 51.8 °F 72% 29.51 in 10.0 mi Calm Calm - N/A   Clear
2:36 AM 60.8 °F 53.6 °F 77% 29.52 in 10.0 mi East 5.8 mph - N/A   Clear
2:56 AM 60.8 °F 53.6 °F 77% 29.53 in 10.0 mi ESE 5.8 mph - N/A   Clear
3:16 AM 60.8 °F 53.6 °F 77% 29.53 in 10.0 mi East 9.2 mph - N/A   Clear
3:36 AM 60.8 °F 53.6 °F 77% 29.54 in 10.0 mi East 5.8 mph - N/A   Clear
3:56 AM 60.8 °F 53.6 °F 77% 29.55 in 10.0 mi East 3.5 mph - N/A   Clear
4:16 AM 60.8 °F 53.6 °F 77% 29.55 in 10.0 mi Calm Calm - N/A   Clear
4:36 AM 60.8 °F 53.6 °F 77% 29.55 in 10.0 mi Calm Calm - N/A   Clear
4:56 AM 60.8 °F 53.6 °F 77% 29.55 in 10.0 mi NNW 3.5 mph - N/A   Clear
5:16 AM 59.0 °F 53.6 °F 82% 29.56 in 10.0 mi Calm Calm - N/A   Clear
5:36 AM 59.0 °F 53.6 °F 82% 29.56 in 10.0 mi Calm Calm - N/A   Clear
5:56 AM 59.0 °F 53.6 °F 82% 29.56 in 10.0 mi NNW 4.6 mph - N/A   Clear
6:16 AM 62.6 °F 55.4 °F 77% 29.57 in 10.0 mi Calm Calm - N/A   Clear
6:36 AM 62.6 °F 55.4 °F 77% 29.57 in 10.0 mi Calm Calm - N/A   Clear
6:56 AM 62.6 °F 55.4 °F 77% 29.58 in 10.0 mi Calm Calm - N/A   Clear
7:16 AM 64.4 °F 55.4 °F 73% 29.58 in 10.0 mi Calm Calm - N/A   Clear
7:36 AM 64.4 °F 55.4 °F 73% 29.59 in 10.0 mi Calm Calm - N/A   Clear
7:56 AM 66.2 °F 55.4 °F 68% 29.59 in 10.0 mi WSW 5.8 mph - N/A   Clear
8:16 AM 64.4 °F 55.4 °F 73% 29.59 in 10.0 mi WSW 4.6 mph - N/A   Clear
8:36 AM 64.4 °F 55.4 °F 73% 29.59 in 10.0 mi SW 3.5 mph - N/A   Clear
8:56 AM 64.4 °F 55.4 °F 73% 29.59 in 10.0 mi SW 4.6 mph - N/A   Clear
9:16 AM 64.4 °F 55.4 °F 73% 29.59 in 10.0 mi SW 3.5 mph - N/A   Clear
9:36 AM 66.2 °F 55.4 °F 68% 29.60 in 10.0 mi SSW 6.9 mph - N/A   Clear
9:56 AM 66.2 °F 55.4 °F 68% 29.60 in 10.0 mi WSW 5.8 mph - N/A   Clear
10:16 AM 69.8 °F 53.6 °F 56% 29.59 in 10.0 mi West 8.1 mph - N/A   Clear
10:36 AM 69.8 °F 53.6 °F 56% 29.59 in 10.0 mi SSW 10.4 mph - N/A   Partly Cloudy
10:56 AM 66.2 °F 53.6 °F 64% 29.60 in 10.0 mi SW 9.2 mph - N/A   Partly Cloudy
11:16 AM 66.2 °F 51.8 °F 60% 29.60 in 10.0 mi SW 10.4 mph 17.3 mph N/A   Clear
11:36 AM 64.4 °F 51.8 °F 64% 29.61 in 10.0 mi SW 10.4 mph - N/A   Clear
11:56 AM 66.2 °F 51.8 °F 60% 29.61 in 10.0 mi South 6.9 mph - N/A   Clear
12:16 PM 66.2 °F 51.8 °F 60% 29.61 in 10.0 mi SW 4.6 mph - N/A   Clear
12:36 PM 66.2 °F 51.8 °F 60% 29.60 in 10.0 mi SW 4.6 mph - N/A   Clear
12:56 PM 66.2 °F 55.4 °F 68% 29.60 in 10.0 mi WSW 8.1 mph - N/A   Clear
1:16 PM 64.4 °F 53.6 °F 68% 29.60 in 10.0 mi SW 5.8 mph - N/A   Clear
1:36 PM 64.4 °F 53.6 °F 68% 29.60 in 10.0 mi SSW 5.8 mph - N/A   Clear
1:56 PM - - N/A% 29.59 in 10.0 mi SW 10.4 mph - N/A   Clear
2:16 PM - - N/A% 29.59 in 10.0 mi SW 6.9 mph - N/A   Clear
2:36 PM - - N/A% 29.58 in 10.0 mi SW 9.2 mph 16.1 mph N/A   Clear
2:56 PM - - N/A% 29.58 in 10.0 mi SSW 8.1 mph - N/A   Clear
3:16 PM - - N/A% 29.57 in 10.0 mi SW 10.4 mph 17.3 mph N/A   Partly Cloudy
3:36 PM - - N/A% 29.57 in 10.0 mi SSW 9.2 mph - N/A   Clear
3:56 PM - - N/A% 29.56 in 10.0 mi SSW 10.4 mph - N/A   Clear
4:16 PM - - N/A% 29.56 in 10.0 mi South 9.2 mph - N/A   Clear
4:36 PM - - N/A% 29.55 in 10.0 mi South 9.2 mph - N/A   Clear
4:56 PM - - N/A% 29.55 in 10.0 mi SSW 9.2 mph - N/A   Mostly Cloudy
5:16 PM - - N/A% 29.56 in 10.0 mi SSW 6.9 mph - N/A   Overcast
5:36 PM - - N/A% 29.55 in 10.0 mi SSW 4.6 mph - N/A   Scattered Clouds
5:56 PM - - N/A% 29.55 in 10.0 mi South 3.5 mph - N/A   Mostly Cloudy
6:16 PM - - N/A% 29.57 in 10.0 mi South 6.9 mph - N/A   Overcast
6:36 PM - - N/A% 29.58 in 10.0 mi South 4.6 mph - N/A   Overcast
6:56 PM - - N/A% 29.57 in 6.0 mi SSW 6.9 mph - N/A   Overcast
7:16 PM - - N/A% 29.59 in 10.0 mi East 4.6 mph - N/A   Overcast
7:36 PM - - N/A% 29.58 in 10.0 mi West 4.6 mph - N/A   Overcast
7:56 PM 59.0 °F 55.4 °F 88% 29.56 in 10.0 mi WNW 3.5 mph - N/A   Mostly Cloudy
8:16 PM 59.0 °F 55.4 °F 88% 29.58 in 10.0 mi South 6.9 mph - N/A   Scattered Clouds
8:36 PM 57.2 °F 53.6 °F 88% 29.57 in 10.0 mi South 6.9 mph - N/A   Mostly Cloudy
8:56 PM 57.2 °F 53.6 °F 88% 29.58 in 10.0 mi SSW 3.5 mph - N/A   Scattered Clouds
9:16 PM 57.2 °F 53.6 °F 88% 29.58 in 10.0 mi SSE 3.5 mph - N/A   Scattered Clouds
9:36 PM 57.2 °F 53.6 °F 88% 29.59 in 10.0 mi SE 4.6 mph - N/A   Partly Cloudy
9:56 PM 57.2 °F 53.6 °F 88% 29.59 in 10.0 mi Calm Calm - N/A   Clear
10:16 PM 55.4 °F 51.8 °F 88% 29.59 in 10.0 mi Calm Calm - N/A   Clear
10:36 PM 55.4 °F 53.6 °F 94% 29.60 in 10.0 mi SSE 3.5 mph - N/A   Scattered Clouds
10:56 PM 55.4 °F 51.8 °F 88% 29.60 in 10.0 mi SE 4.6 mph - N/A   Overcast
11:16 PM 55.4 °F 51.8 °F 88% 29.59 in 10.0 mi Calm Calm - N/A   Mostly Cloudy
11:36 PM 55.4 °F 53.6 °F 94% 29.59 in 10.0 mi East 3.5 mph - N/A   Partly Cloudy
11:56 PM 55.4 °F 53.6 °F 94% 29.59 in 10.0 mi South 4.6 mph - N/A   Clear